TimeEST,TemperatureF,Dew PointF,Humidity,Sea Level PressureIn,VisibilityMPH,Wind Direction,Wind SpeedMPH,Gust SpeedMPH,PrecipitationIn,Events,Conditions,WindDirDegrees,DateUTC
12:53 AM,28.0,12.9,53,30.09,10.0,NW,3.5,-,N/A,,Mostly Cloudy,320,2014-02-09 05:53:00
1:53 AM,28.9,14.0,54,30.10,10.0,NNW,3.5,-,N/A,,Overcast,340,2014-02-09 06:53:00
2:53 AM,25.0,12.9,60,30.09,10.0,Calm,Calm,-,N/A,,Mostly Cloudy,0,2014-02-09 07:53:00
3:53 AM,28.0,16.0,61,30.09,10.0,NNW,4.6,-,N/A,,Overcast,340,2014-02-09 08:53:00
4:53 AM,28.9,12.9,51,30.09,10.0,NNW,3.5,-,N/A,,Overcast,330,2014-02-09 09:53:00
5:53 AM,27.0,15.1,61,30.07,10.0,NW,5.8,-,N/A,,Mostly Cloudy,310,2014-02-09 10:53:00
6:53 AM,26.1,16.0,66,30.08,10.0,WNW,5.8,-,N/A,,Overcast,300,2014-02-09 11:53:00
7:53 AM,28.9,19.0,67,30.09,10.0,WNW,6.9,-,N/A,,Clear,300,2014-02-09 12:53:00
8:53 AM,32.0,19.0,59,30.10,10.0,NW,11.5,-,N/A,,Clear,320,2014-02-09 13:53:00
9:53 AM,33.1,19.0,56,30.10,10.0,NW,9.2,-,N/A,,Clear,320,2014-02-09 14:53:00
10:53 AM,35.1,19.9,54,30.09,10.0,NW,11.5,-,N/A,,Clear,320,2014-02-09 15:53:00
11:53 AM,35.1,19.9,54,30.06,10.0,North,10.4,-,N/A,,Clear,350,2014-02-09 16:53:00
12:53 PM,35.1,19.0,52,30.04,10.0,NW,8.1,-,N/A,,Scattered Clouds,310,2014-02-09 17:53:00
1:53 PM,34.0,21.0,59,30.04,10.0,NNW,9.2,-,N/A,,Overcast,340,2014-02-09 18:53:00
2:53 PM,34.0,21.9,61,30.03,10.0,Variable,6.9,-,N/A,,Overcast,0,2014-02-09 19:53:00
3:53 PM,32.0,21.0,64,30.02,10.0,NNW,5.8,-,N/A,,Overcast,340,2014-02-09 20:53:00
4:53 PM,32.0,25.0,75,30.03,10.0,WNW,5.8,-,N/A,,Overcast,290,2014-02-09 21:53:00
5:27 PM,30.2,24.8,80,30.03,10.0,WNW,4.6,-,N/A,,Mostly Cloudy,300,2014-02-09 22:27:00
5:37 PM,30.2,24.8,80,30.03,10.0,WNW,3.5,-,N/A,,Overcast,290,2014-02-09 22:37:00
5:53 PM,30.9,25.0,79,30.02,10.0,Calm,Calm,-,N/A,,Overcast,0,2014-02-09 22:53:00
6:53 PM,30.0,24.1,79,30.03,10.0,SW,6.9,-,N/A,,Scattered Clouds,220,2014-02-09 23:53:00
7:53 PM,30.9,21.9,69,29.99,10.0,SSW,6.9,-,N/A,,Clear,210,2014-02-10 00:53:00
8:53 PM,30.9,21.9,69,29.99,10.0,SW,8.1,-,N/A,,Overcast,220,2014-02-10 01:53:00
9:53 PM,32.0,21.0,64,29.99,10.0,WSW,12.7,-,N/A,,Overcast,240,2014-02-10 02:53:00
10:12 PM,32.0,23.0,69,29.97,6.0,WSW,11.5,-,0.00,Snow,Light Snow,240,2014-02-10 03:12:00
10:40 PM,30.2,24.8,80,29.97,6.0,WSW,9.2,-,0.00,Snow,Light Snow,250,2014-02-10 03:40:00
10:53 PM,30.0,24.1,79,29.98,5.0,WSW,10.4,-,0.00,Snow,Light Snow,250,2014-02-10 03:53:00
11:25 PM,30.2,24.8,80,29.97,2.0,West,9.2,-,0.00,Snow,Light Snow,260,2014-02-10 04:25:00
11:32 PM,30.2,24.8,80,29.97,1.8,West,6.9,-,0.00,Snow,Light Snow,260,2014-02-10 04:32:00
11:43 PM,30.2,26.6,86,29.97,2.5,West,8.1,-,0.00,Snow,Light Snow,270,2014-02-10 04:43:00
11:53 PM,30.0,26.1,85,29.97,2.5,West,6.9,-,0.00,Snow,Light Snow,270,2014-02-10 04:53:00
11:59 PM,30.2,26.6,86,29.96,3.0,West,6.9,-,0.00,Snow,Light Snow,270,2014-02-10 04:59:00